Location: Stara Lesna
(49.1528°N, 20.2911°E)
Time: 22:11:14
(UTC+02:00)

NOSS 3-2 (C) - Pass Details

Date: 21 September 2019
Orbit: 820 x 1393 km, 63.4° (Epoch: 08 October)

Event Time Altitude Azimuth Distance (km) Brightness Sun altitude
Exits shadow 04:24:58 32° 263° (W) 1,553 4.0 -19.5°
Maximum altitude 04:27:36 53° 323° (NW) 1,194 3.8 -19.1°
Drops below altitude 10° 04:34:18 10° 39° (NE) 2,942 7.0 -18.1°
Sets 04:37:16 0° 44° (NE) 3,995 8.0 -17.6°
